Temperature
13 14 13 13 13 14 14 14 14 14 14 14 14 14 14 14 14 14 14 14 14 14 14 14 14 14 15 15 15 15 15 14 14 14 14 14 14 14 14 14 14 14 14
13 13 13 13 13 13 14 14 14 14 14 14 14 14 14 14 14 14 14 14 14 14 14 14 14 14 14 14 14 14 14 14 14 14 14 14 14 14 14 14 14 14 14
13 13 13 13 13 13 13 13 14 14 14 14 14 14 14 14 14 14 14 14 14 14 14 14 14 14 14 14 14 14 14 14 14 14 14 14 14 14 14 14 14 14 14
13 13 13 13 13 13 13 13 13 13 13 13 13 13 13 13 14 14 14 14 14 14 14 14 14 14 14 14 14 14 14 14 14 14 14 14 14 13 13 13 13 13 13
12 12 12 13 13 13 13 13 13 13 13 13 13 13 13 13 13 13 13 13 13 13 13 13 13 14 14 14 13 13 13 13 13 13 13 13 13 13 13 13 13 13 13
12 12 12 12 12 13 13 13 13 13 13 13 13 13 13 13 13 13 13 13 13 13 13 13 13 13 13 13 13 13 13 13 13 13 13 13 13 13 13 13 13 13 13
12 12 12 12 12 12 12 12 12 12 12 13 13 13 13 13 13 13 13 13 13 13 13 13 13 13 13 13 13 13 13 13 13 13 13 12 12 12 12 12 12 12 12
11 11 12 12 12 12 12 12 12 12 12 12 12 12 12 12 13 13 13 13 12 12 13 13 12 12 12 12 12 12 12 13 12 12 12 12 12 12 12 12 12 12 12
11 11 11 11 11 11 11 11 12 12 12 12 12 12 12 12 12 12 12 12 12 12 12 12 12 12 12 12 12 12 12 12 12 12 12 12 12 12 12 12 12 12 12
11 11 11 11 11 11 11 11 11 11 11 11 12 12 12 12 12 12 12 12 12 12 12 12 12 12 12 12 12 12 12 12 12 12 11 11 11 11 11 11 11 12 11
10 10 10 10 10 11 11 11 11 11 11 11 11 11 11 11 11 11 11 11 11 11 11 11 11 11 11 11 11 11 11 11 11 11 11 11 11 11 11 11 11 11 11
10 10 10 10 10 10 10 10 10 10 10 10 11 11 11 11 11 11 11 11 11 11 11 11 11 11 11 11 11 11 11 11 11 11 11 10 10 10 10 10 11 11 11
9 9 9 9 10 10 10 10 10 10 10 10 10 10 10 10 10 10 10 10 10 10 10 10 10 10 10 10 10 10 10 10 10 10 10 10 10 10 10 10 10 10 10
9 9 9 9 9 9 9 9 9 10 10 10 10 10 10 10 10 10 10 10 10 10 10 10 10 10 10 9 10 10 10 10 10 10 10 10 10 10 10 10 9 9 10
8 8 8 9 8 9 9 9 9 9 9 9 9 9 9 9 9 9 9 9 9 9 9 9 9 9 9 9 9 9 9 9 9 9 9 9 9 9 9 9 9 9 9
8 8 8 8 8 8 8 8 8 8 8 8 8 9 9 9 9 9 9 9 9 9 9 9 9 8 8 8 9 9 9 9 9 9 9 9 9 9 9 9 9 9 9
7 7 7 7 8 8 8 8 8 8 7 8 8 8 8 8 8 8 8 8 8 8 8 8 8 8 8 8 8 8 8 8 8 8 8 8 8 8 8 8 8 8 8
7 7 7 7 7 7 7 7 7 7 7 7 7 7 7 7 7 7 8 8 8 8 8 8 8 8 7 7 7 7 8 7 8 8 8 8 8 8 8 8 8 8 8
6 6 6 6 7 7 7 7 7 7 6 6 6 6 6 6 7 7 7 7 7 7 7 7 7 7 7 7 7 7 7 7 7 7 7 7 7 7 7 7 7 7 7
5 6 6 6 6 6 6 6 6 6 6 6 6 6 6 6 6 6 6 6 6 6 6 6 6 6 6 6 6 6 6 6 6 6 6 6 6 6 6 6 6 7 7
5 5 5 5 5 5 5 5 6 6 6 6 6 6 6 6 6 5 5 5 6 6 6 6 6 6 6 6 5 5 6 6 6 6 6 6 6 6 6 6 6 6 6
4 4 4 4 4 4 4 5 5 5 5 5 5 5 5 5 5 5 5 5 5 5 5 5 5 5 5 5 4 4 4 5 5 5 5 5 5 5 5 5 5 5 5
4 4 4 4 4 4 4 4 4 4 4 4 4 5 4 5 5 4 4 4 4 4 4 4 4 4 4 4 4 4 3 4 4 4 5 5 4 4 4 4 5 5 5
3 3 3 3 3 3 3 3 3 3 3 3 4 4 4 4 4 4 4 4 4 3 4 4 4 4 4 4 4 3 3 3 3 3 3 4 4 4 4 4 4 4 4
2 2 2 2 2 2 2 2 2 3 3 3 3 3 3 3 3 3 3 3 3 3 3 3 3 3 3 3 3 3 2 2 2 2 2 3 3 3 3 3 3 4 4
1 2 2 1 2 2 1 2 2 2 2 2 2 2 2 2 2 2 2 2 2 2 2 2 2 2 2 2 2 2 2 2 2 1 1 2 2 3 3 3 3 3 3
Wind_Speed
2 4 1 4 7 9 11 12 13 13 13 14 14 15 15 15 15 15 15 16 16 16 16 16 16 17 17 17 17 17 17 18 18 17 17 17 17 17 17 17 16 15 17
1 2 1 5 8 10 11 12 12 13 13 13 14 15 15 15 15 15 16 16 15 16 16 16 16 17 17 17 16 16 16 17 17 16 16 16 16 16 16 16 15 14 16
3 3 3 7 9 10 11 11 12 12 12 13 13 14 14 14 14 15 15 15 15 15 16 16 16 16 16 16 15 15 15 15 16 15 14 13 13 15 15 15 15 15 15
4 4 6 9 10 11 11 11 11 11 12 12 13 13 13 14 14 14 14 14 14 15 15 15 15 15 15 15 15 15 15 15 14 14 12 11 11 13 14 14 14 14 14
5 6 6 10 11 11 12 12 11 11 11 11 12 12 12 12 13 13 13 14 14 14 14 14 14 14 14 14 14 14 14 14 14 13 12 11 10 12 12 12 13 13 13
6 6 6 10 10 11 11 11 11 11 11 11 11 11 11 11 12 12 13 13 13 13 13 13 13 13 13 13 13 13 13 12 12 12 11 10 10 11 12 12 12 12 12
6 7 7 9 10 10 11 10 11 11 11 11 11 11 11 11 11 11 12 12 12 12 12 12 12 12 12 12 12 13 13 12 12 11 10 10 10 11 11 11 11 11 11
6 8 8 9 9 10 10 10 10 10 11 11 11 11 11 11 11 11 11 11 11 11 11 11 12 12 12 12 12 12 12 12 10 10 9 9 9 10 10 10 10 10 11
8 8 8 9 8 8 9 10 10 10 10 11 11 11 11 10 11 11 11 10 10 11 11 11 11 11 11 11 11 11 11 11 11 9 8 8 8 9 9 9 9 10 10
7 8 8 8 9 9 9 9 10 10 10 11 11 11 11 10 10 10 10 10 10 10 10 10 10 10 10 11 10 10 10 10 10 8 7 7 8 8 7 8 8 8 9
5 6 7 7 7 8 8 8 9 9 10 10 10 10 10 10 10 9 10 10 10 9 10 10 10 10 10 10 10 10 9 8 8 7 6 7 7 7 7 7 7 7 7
3 4 5 6 6 7 7 8 8 8 9 9 9 9 9 9 9 9 9 10 10 10 10 10 10 10 10 9 9 8 8 7 7 6 5 6 6 6 6 6 6 5 5
2 3 4 4 5 6 6 7 7 8 8 9 8 8 9 9 8 9 8 8 9 9 9 9 9 9 8 8 7 7 7 7 6 5 5 5 5 5 5 4 4 4 4
3 2 3 4 4 5 6 6 6 6 6 7 7 7 7 7 7 7 7 7 7 7 7 7 7 7 8 7 7 7 7 6 6 5 5 6 6 5 4 4 3 3 4
2 2 2 3 4 4 5 5 6 6 5 6 7 7 7 6 5 5 5 6 6 6 6 6 6 6 6 6 6 6 6 6 5 5 5 6 6 6 5 4 3 2 2
1 1 1 2 3 4 4 5 5 5 5 5 6 6 6 6 5 4 4 5 5 5 5 5 5 4 4 5 5 5 5 5 5 5 5 5 6 6 5 4 3 2 1
1 1 1 2 3 4 4 4 5 5 5 5 5 6 6 5 5 4 4 3 4 5 5 5 5 5 4 4 3 4 4 4 4 4 4 5 5 6 6 6 4 4 2
2 2 2 2 3 4 4 4 4 5 5 4 4 5 5 5 5 4 4 3 3 4 4 4 3 2 2 2 1 2 3 3 4 4 4 4 5 5 5 6 6 5 4
2 2 3 3 3 3 3 4 4 5 5 4 4 4 4 4 4 4 3 3 3 3 3 2 2 1 1 1 1 1 2 2 3 3 3 4 4 4 4 5 6 5 5
2 3 3 3 3 3 3 3 3 4 4 4 4 4 4 4 4 3 3 3 3 3 2 1 1 1 1 1 1 1 2 1 2 2 2 3 3 3 4 4 4 3 4
3 3 3 3 3 3 2 1 1 1 1 2 3 4 4 3 3 3 2 3 2 1 1 1 1 1 1 1 1 1 2 1 1 1 2 2 3 3 3 3 3 2 3
2 2 2 2 1 2 2 1 0 1 1 1 3 4 4 3 3 2 2 2 2 1 1 1 1 1 0 1 1 0 1 2 1 1 1 1 2 3 3 3 2 2 2
1 1 1 0 1 2 2 2 2 2 2 1 2 2 4 4 3 3 2 1 2 1 0 1 1 2 2 1 1 2 1 2 2 1 1 1 1 2 2 2 2 2 2
1 1 1 1 1 2 2 2 2 1 0 1 1 1 3 3 3 3 2 1 1 0 0 1 1 1 2 2 1 1 1 2 1 2 2 1 2 2 3 3 3 3 3
0 1 1 1 2 2 2 2 2 1 1 1 2 2 2 3 3 4 3 2 1 1 1 1 1 1 2 2 2 1 1 1 1 2 3 3 2 3 3 3 4 4 4
1 1 1 1 1 1 1 1 1 1 1 2 2 2 2 2 3 4 4 2 2 2 2 1 2 2 2 2 2 2 2 2 2 3 3 4 4 3 3 3 3 4 3
Wind_Direction
314 322 354 82 93 94 93 91 88 86 84 85 86 88 89 87 85 83 81 80 78 77 77 77 77 76 75 75 75 74 74 73 73 74 73 74 77 77 77 74 72 72 76
311 329 77 96 97 97 96 94 91 89 87 86 86 87 87 87 86 84 81 79 79 79 78 77 76 75 74 74 75 76 75 75 73 72 71 71 74 77 78 76 74 75 77
38 33 77 99 102 98 95 93 92 91 90 89 88 87 85 84 84 83 82 80 78 79 78 77 75 75 75 74 74 76 76 77 74 72 69 68 72 76 78 77 77 77 76
51 57 73 93 100 98 96 93 91 91 91 92 90 88 86 83 82 82 82 80 78 78 78 77 76 75 74 74 74 75 76 76 73 71 66 65 70 76 77 77 77 77 77
57 62 79 90 92 97 96 93 91 91 92 94 92 89 88 86 84 82 80 79 78 78 77 76 75 75 74 74 75 75 77 75 71 68 65 65 70 76 76 77 79 79 79
59 63 84 91 90 92 96 94 93 91 93 93 92 91 89 87 85 82 80 79 79 78 76 75 74 74 75 75 75 75 76 73 68 66 64 66 71 76 76 76 78 81 80
63 59 78 92 93 92 91 95 95 91 89 89 90 90 89 87 86 84 81 78 78 79 78 75 75 75 75 75 77 76 75 71 68 66 65 66 70 74 74 74 75 78 81
73 64 69 81 90 92 91 89 91 91 90 86 85 86 87 87 87 85 83 80 79 78 78 76 75 76 75 76 79 79 76 71 67 63 63 67 70 73 75 73 73 74 78
68 64 61 66 72 84 90 89 87 89 88 85 83 83 84 86 87 85 83 81 78 76 75 74 75 76 77 77 79 79 76 72 66 61 60 67 69 71 73 74 74 74 75
62 57 54 59 63 66 75 84 83 84 86 83 80 81 81 83 85 85 82 80 78 76 75 74 74 76 78 78 78 77 75 70 65 61 59 65 66 69 74 78 77 75 74
55 48 51 54 58 64 70 73 76 77 78 79 79 83 82 80 80 78 80 81 79 77 76 75 74 75 75 75 73 73 74 69 66 61 61 62 64 68 70 74 77 77 74
66 42 48 54 57 66 73 74 70 69 68 70 75 78 80 80 79 79 80 80 77 74 74 73 72 73 71 69 67 66 67 66 62 55 58 58 60 64 70 71 74 76 76
107 60 48 57 60 69 74 75 70 66 64 64 69 77 82 80 75 70 69 68 69 68 67 67 65 66 69 69 68 65 65 67 62 54 50 55 56 60 64 68 69 73 81
94 71 59 62 70 69 79 79 76 71 66 64 64 72 80 75 68 67 66 65 67 68 69 68 66 65 65 65 68 66 62 62 59 54 46 47 51 53 54 65 70 74 79
98 74 66 72 79 78 81 78 74 69 67 68 69 65 73 76 68 69 65 66 69 71 74 71 71 69 64 58 59 63 60 55 53 51 43 40 43 43 43 50 54 69 84
115 95 75 84 76 79 79 78 77 72 69 68 67 62 69 78 74 70 67 64 63 68 76 80 84 82 73 67 56 53 57 57 51 47 43 38 34 34 32 37 38 40 72
102 80 82 96 77 83 82 80 81 78 76 69 65 64 64 73 79 74 68 63 60 66 76 79 74 73 67 63 50 42 46 46 49 47 44 41 34 30 31 32 30 28 37
84 75 68 83 79 78 81 82 85 83 79 70 67 64 55 59 76 79 65 53 62 70 71 75 67 72 57 55 38 20 28 25 33 39 42 40 37 31 24 29 27 22 32
81 81 71 69 75 80 77 79 79 79 72 64 63 61 54 52 62 77 64 49 62 74 70 71 68 87 84 47 27 21 18 17 12 20 30 29 27 27 19 15 15 19 23
78 69 64 62 53 65 77 73 67 61 55 51 49 46 48 49 51 66 66 46 61 65 52 57 110 76 108 113 27 7 347 1 13 20 10 11 10 12 11 7 5 1 8
72 72 69 64 48 57 65 85 78 35 29 44 38 38 40 42 50 61 57 50 47 68 61 67 111 128 92 81 58 342 336 340 355 9 3 7 360 356 359 358 356 352 344
92 81 75 64 61 57 49 55 97 117 84 64 37 34 32 35 41 52 53 50 44 45 36 70 88 141 134 118 127 128 317 313 328 331 340 344 341 345 344 337 337 327 327
100 92 94 57 75 61 59 67 62 58 38 27 18 18 14 15 22 34 33 54 53 58 253 248 190 169 186 202 152 158 181 237 295 296 276 292 314 313 313 313 311 300 295
198 119 85 77 65 66 79 79 84 89 34 310 317 334 358 4 14 16 18 30 77 82 303 296 249 226 182 194 210 237 215 178 199 285 291 278 277 276 292 300 292 286 282
162 110 107 73 62 59 78 97 99 84 28 357 5 359 354 360 1 10 15 14 0 296 263 309 284 234 208 199 196 204 214 222 208 213 260 281 281 260 273 275 270 267 260
96 83 92 89 60 54 74 89 112 117 24 15 358 353 350 346 357 1 1 3 352 330 294 275 259 220 218 228 213 196 196 200 208 212 236 259 268 266 264 271 264 257 246
Height
1531 1533 1534 1535 1536 1537 1537 1538 1539 1539 1540 1540 1541 1541 1542 1542 1543 1543 1544 1544 1544 1544 1544 1544 1545 1545 1545 1545 1545 1546 1546 1546 1547 1547 1547 1547 1547 1548 1548 1548 1548 1549 1549
1530 1532 1534 1535 1536 1537 1538 1539 1539 1540 1541 1541 1542 1542 1543 1544 1544 1544 1545 1545 1545 1545 1545 1546 1546 1546 1546 1547 1547 1547 1548 1548 1548 1549 1549 1549 1549 1550 1550 1550 1551 1551 1551
1530 1532 1533 1535 1537 1538 1538 1539 1540 1540 1541 1542 1542 1543 1544 1544 1545 1545 1546 1546 1546 1547 1547 1547 1547 1548 1548 1548 1549 1549 1549 1550 1550 1550 1551 1551 1551 1552 1552 1552 1552 1553 1553
1530 1532 1533 1535 1537 1538 1539 1540 1540 1541 1542 1542 1543 1544 1544 1545 1546 1546 1547 1547 1547 1548 1548 1548 1548 1549 1549 1549 1550 1550 1551 1551 1551 1552 1552 1552 1553 1553 1554 1554 1554 1554 1555
1530 1532 1533 1535 1537 1538 1539 1540 1541 1541 1542 1543 1544 1544 1545 1546 1546 1547 1547 1547 1548 1548 1549 1549 1549 1550 1550 1550 1551 1551 1552 1552 1553 1553 1554 1554 1554 1555 1555 1555 1555 1556 1556
1530 1532 1533 1535 1536 1538 1539 1540 1541 1542 1542 1543 1544 1544 1545 1546 1546 1547 1547 1548 1548 1548 1549 1549 1550 1550 1551 1551 1552 1552 1552 1553 1554 1554 1555 1555 1555 1556 1556 1557 1557 1557 1558
1530 1532 1534 1535 1536 1537 1539 1540 1541 1541 1542 1543 1543 1544 1545 1545 1546 1547 1547 1548 1548 1549 1549 1550 1550 1551 1551 1551 1552 1553 1553 1554 1554 1555 1555 1556 1556 1557 1557 1558 1558 1558 1558
1530 1532 1533 1535 1536 1537 1538 1539 1540 1541 1542 1543 1543 1544 1544 1545 1546 1546 1547 1548 1548 1549 1549 1550 1550 1551 1551 1552 1553 1553 1554 1554 1555 1555 1556 1556 1557 1557 1558 1558 1558 1559 1559
1530 1532 1533 1534 1536 1537 1538 1539 1540 1541 1542 1542 1543 1543 1544 1545 1546 1546 1547 1548 1548 1548 1549 1549 1550 1551 1551 1552 1553 1553 1554 1554 1555 1555 1556 1557 1557 1558 1558 1558 1559 1559 1559
1530 1531 1533 1534 1535 1536 1537 1539 1539 1540 1541 1542 1542 1543 1544 1544 1545 1546 1546 1547 1547 1548 1548 1549 1550 1550 1551 1551 1552 1553 1554 1554 1555 1555 1556 1557 1557 1558 1558 1558 1559 1559 1559
1529 1530 1532 1533 1534 1535 1537 1538 1539 1540 1541 1541 1542 1542 1543 1544 1544 1545 1545 1546 1547 1547 1548 1548 1549 1550 1550 1551 1552 1552 1553 1554 1555 1555 1556 1557 1557 1558 1558 1558 1558 1559 1559
1528 1529 1530 1532 1534 1534 1535 1537 1538 1539 1539 1540 1541 1541 1542 1543 1544 1544 1545 1545 1546 1546 1547 1548 1548 1549 1550 1550 1551 1552 1552 1553 1554 1554 1555 1556 1557 1557 1557 1557 1558 1558 1558
1526 1528 1529 1531 1532 1533 1534 1535 1536 1537 1538 1539 1540 1540 1541 1542 1543 1543 1544 1544 1545 1546 1546 1547 1548 1548 1549 1549 1550 1550 1551 1552 1553 1553 1554 1555 1556 1556 1556 1557 1557 1557 1557
1525 1527 1528 1530 1531 1532 1533 1534 1535 1536 1536 1537 1538 1539 1540 1541 1541 1542 1543 1543 1544 1544 1545 1546 1546 1547 1548 1548 1549 1549 1550 1551 1551 1552 1553 1554 1554 1554 1555 1555 1556 1556 1556
1524 1525 1527 1528 1530 1531 1532 1533 1533 1534 1535 1536 1537 1538 1538 1539 1540 1541 1541 1542 1542 1543 1544 1544 1545 1546 1546 1548 1548 1548 1549 1549 1550 1550 1551 1552 1553 1553 1553 1554 1554 1554 1554
1522 1524 1525 1527 1528 1529 1530 1531 1532 1533 1534 1535 1535 1536 1537 1538 1538 1539 1540 1540 1541 1541 1542 1543 1543 1544 1545 1546 1547 1547 1547 1548 1548 1549 1549 1550 1551 1551 1552 1552 1552 1552 1553
1520 1522 1523 1525 1526 1528 1529 1530 1531 1531 1532 1533 1534 1534 1535 1536 1537 1538 1538 1539 1539 1540 1540 1541 1542 1542 1543 1544 1545 1545 1546 1546 1546 1547 1547 1548 1549 1549 1549 1550 1550 1550 1551
1519 1520 1521 1523 1524 1526 1527 1528 1529 1530 1530 1531 1532 1533 1533 1534 1535 1536 1536 1537 1537 1538 1538 1539 1540 1540 1541 1541 1542 1543 1543 1544 1544 1545 1545 1546 1546 1547 1547 1547 1547 1548 1548
1517 1518 1519 1521 1522 1524 1525 1526 1527 1528 1529 1529 1530 1531 1531 1532 1533 1533 1534 1534 1535 1536 1536 1537 1537 1538 1538 1539 1540 1540 1541 1541 1542 1542 1543 1543 1544 1544 1544 1544 1545 1545 1546
1515 1516 1517 1519 1520 1521 1522 1524 1525 1526 1527 1527 1528 1529 1529 1530 1531 1531 1532 1532 1533 1533 1534 1534 1535 1536 1536 1537 1537 1538 1538 1539 1539 1540 1540 1541 1541 1541 1542 1542 1542 1543 1543
1512 1514 1515 1516 1517 1519 1519 1520 1521 1522 1524 1525 1526 1526 1527 1527 1528 1528 1529 1529 1530 1530 1531 1531 1532 1533 1533 1534 1535 1535 1535 1536 1536 1536 1537 1538 1538 1538 1539 1539 1539 1540 1540
1509 1511 1513 1514 1515 1516 1517 1518 1519 1520 1521 1522 1523 1523 1524 1524 1525 1525 1525 1526 1526 1527 1528 1528 1529 1529 1530 1531 1532 1532 1532 1533 1532 1533 1534 1534 1535 1535 1536 1536 1536 1537 1537
1507 1509 1510 1511 1513 1514 1514 1515 1516 1517 1518 1519 1519 1520 1521 1521 1521 1522 1522 1523 1523 1524 1524 1525 1525 1526 1527 1528 1529 1530 1530 1528 1528 1529 1530 1531 1531 1532 1533 1533 1533 1533 1534
1505 1507 1508 1509 1510 1511 1512 1512 1513 1513 1514 1515 1516 1517 1517 1518 1518 1519 1519 1519 1520 1521 1521 1522 1522 1522 1523 1524 1525 1526 1527 1527 1527 1525 1526 1527 1528 1528 1529 1529 1529 1530 1530
1503 1504 1505 1507 1508 1508 1509 1510 1510 1511 1511 1512 1513 1513 1514 1514 1515 1515 1515 1516 1516 1517 1517 1518 1518 1519 1519 1520 1521 1521 1522 1523 1523 1523 1521 1522 1523 1524 1524 1525 1525 1525 1526
1501 1502 1502 1503 1504 1505 1506 1507 1507 1508 1508 1509 1509 1510 1510 1511 1511 1511 1512 1512 1512 1513 1513 1513 1514 1514 1515 1516 1516 1517 1518 1518 1518 1519 1518 1517 1518 1518 1519 1520 1520 1521 1521